DELTA 1 DEB, 21341

Orbit data source: Space-Track

DELTA 1 DEB, 21341 is space debris in SSO originally from a launch on Thu, 12 Jun 1975 UTC launched from the Air Force Western Test Range (AFWTR). Debris objects in space refer to the collection of defunct objects orbiting the Earth. Examples of debris include non-operational satellites, rocket bodies, and fragments generated from explosions, collisions, or faulty payload assembly.

Loading next visibility...
Identifier
21341, 1975-052BK
Orbit
SSO
Country
Flag of USUS
Related business
Manufacturer
Unknown
Mission
Spacecraft
Bus & Motor
Unknown
Mass
Unknown
Launch date (UTC)
1975-06-12 (51 years ago)
Launch vehicle
Unknown
Launch site
Air Force Western Test Range (AFWTR)
Object type
Payload
Rocket body
Debris
Shape & HBR
Unknown shape, 0.2 m
Radar Cross Section
Medium (>0.1 m² and <1 m²)

Expand to show TLE details & history
Last TLE update: 1 day ago

TLE from 1 day ago
0 DELTA 1 DEB
1 21341U 75052BK  26126.39939812 -.00000035  00000-0 -12693-4 0  9996
2 21341  99.7350 179.6943 0500419 135.7954 246.0893 12.58303399604575
Epoch: 2026-05-06T09:35Z
TLE epoch observation values (Epoch: 2026-05-06T09:35:07.997Z)
Latitude
16.51551°
Longitude
168.74869°
Altitude
1,606.233 km
Speed
6.989 km/s
True Right ascension
11h 47m 10s
True Declination
16° 25' 55"
Sunlit
Object was in daylight at epoch
Visualization orbit readout
Latitude
Unknown
Longitude
Unknown
Altitude
Unknown
Speed
Unknown
Apparent Right ascension
Unknown
Apparent Declination
Unknown
Sunlit
N/A
Visualization observer readout
Local Sidereal Time
19:09:56
Azimuth
Unknown
Elevation
Unknown
Doppler factor
Unknown
Orbital elements
Apogee altitude
1,817.975 km
Perigee altitude
1,036.77 km
Semi-major axis
7,805.509 km
Eccentricity
0.05004
Inclination
99.735°
RAAN
179.6943°
Arg. of periapsis
135.7954°
True anomaly
240.98354°
Mean anomaly
246.0893°
Eccentric anomaly
243.52284°
Mean motion
3.14732 °/min
Orbital period
114.38 mins
BSTAR
-0.000012693
Loading maneuver chart data...
Computing Atmospheric mass density...
Loading historical data...
Loading historical data...
Loading historical data...
Loading historical data...
Loading historical data...
Loading historical data...
Loading historical data...

Documentation

Showing up to 5 results
|